Вернуться в каталог

HAINAN-1 02

АктивенНаукаSSO
NORAD 51832·PAYLOAD·🇨🇳 China
Это название спутника еще не подтверждено официальными источниками.

Запущен Feb 27, 2022 с Wenchang Space Launch Site

Loading…

Ближайшие Пролёты (ближайшие 24 часа)

TLE

СвежийSource: Space-Track

Эпоха: Sep 14, 2026, 15:15 UTC

1 51832U 22019J   26257.63579147  .00001851  00000-0  87102-4 0  9994
2 51832  97.3347 318.1126 0006909 279.0843  80.9611 15.20761221251395

Отслеживайте HAINAN-1 02 в реальном времени с AllMySat

Download on the App Store